contact:dominique.lefevre@mio.osupytheas.fr, maurice.libes@osupytheas.fr, didier.mallarino@osupytheas.fr
Project:EMSO http://www.emso-fr.org/EMSO-France
Depth: 2436.0 m
Title:EMSO Ligure Ouest : Data MII capteur MICROCAT
DateTime_Computer,Latitude,Longitude,Temperature,Conductivity,Pressure,DateTime_Instrument
DateTime_Computer,Latitude,Longitude,degC,S m-1,dbar,DateTime_Instrument
2021-08-06T00:00:11Z,42.805,6.029,13.2985,4.59995,2470.39,2021-8-06T02:01:29Z
2021-08-06T00:03:14Z,42.805,6.029,13.2982,4.59996,2470.366,2021-8-06T02:04:32Z
2021-08-06T00:06:17Z,42.805,6.029,13.2982,4.59996,2470.39,2021-8-06T02:07:35Z
2021-08-06T00:09:21Z,42.805,6.029,13.2989,4.59996,2470.39,2021-8-06T02:10:38Z
2021-08-06T00:12:24Z,42.805,6.029,13.2985,4.59996,2470.404,2021-8-06T02:13:41Z
2021-08-06T00:15:27Z,42.805,6.029,13.2988,4.60001,2470.404,2021-8-06T02:16:45Z
2021-08-06T00:18:30Z,42.805,6.029,13.2985,4.59996,2470.39,2021-8-06T02:19:48Z
2021-08-06T00:21:33Z,42.805,6.029,13.2986,4.59995,2470.38,2021-8-06T02:22:51Z
2021-08-06T00:24:36Z,42.805,6.029,13.2984,4.59995,2470.39,2021-8-06T02:25:54Z
2021-08-06T00:27:39Z,42.805,6.029,13.2986,4.59996,2470.38,2021-8-06T02:28:57Z
2021-08-06T00:30:42Z,42.805,6.029,13.2988,4.59997,2470.39,2021-8-06T02:32:00Z
2021-08-06T00:33:46Z,42.805,6.029,13.2987,4.59995,2470.366,2021-8-06T02:35:03Z
2021-08-06T00:36:49Z,42.805,6.029,13.2983,4.59997,2470.343,2021-8-06T02:38:06Z
2021-08-06T00:39:52Z,42.805,6.029,13.2989,4.59997,2470.38,2021-8-06T02:41:09Z
2021-08-06T00:42:55Z,42.805,6.029,13.2983,4.59997,2470.366,2021-8-06T02:44:13Z
2021-08-06T00:45:58Z,42.805,6.029,13.2989,4.60001,2470.33,2021-8-06T02:47:16Z
2021-08-06T00:49:01Z,42.805,6.029,13.2983,4.59996,2470.39,2021-8-06T02:50:19Z
2021-08-06T00:52:04Z,42.805,6.029,13.2987,4.59999,2470.39,2021-8-06T02:53:22Z
2021-08-06T00:55:07Z,42.805,6.029,13.2985,4.60001,2470.343,2021-8-06T02:56:25Z
2021-08-06T00:58:10Z,42.805,6.029,13.2988,4.59997,2470.366,2021-8-06T02:59:28Z
2021-08-06T01:01:14Z,42.805,6.029,13.2985,4.59997,2470.38,2021-8-06T03:02:31Z
2021-08-06T01:04:17Z,42.805,6.029,13.2986,4.59996,2470.343,2021-8-06T03:05:34Z
2021-08-06T01:07:20Z,42.805,6.029,13.2986,4.59996,2470.38,2021-8-06T03:08:38Z
2021-08-06T01:10:23Z,42.805,6.029,13.2986,4.59998,2470.38,2021-8-06T03:11:41Z
2021-08-06T01:13:26Z,42.805,6.029,13.2988,4.59996,2470.366,2021-8-06T03:14:44Z
2021-08-06T01:16:29Z,42.805,6.029,13.2982,4.59996,2470.39,2021-8-06T03:17:47Z
2021-08-06T01:19:32Z,42.805,6.029,13.2989,4.59996,2470.366,2021-8-06T03:20:50Z
2021-08-06T01:22:35Z,42.805,6.029,13.2984,4.59999,2470.38,2021-8-06T03:23:53Z
2021-08-06T01:25:39Z,42.805,6.029,13.2985,4.59999,2470.343,2021-8-06T03:26:56Z
2021-08-06T01:28:42Z,42.805,6.029,13.2983,4.59995,2470.343,2021-8-06T03:29:59Z
2021-08-06T01:31:45Z,42.805,6.029,13.2984,4.59994,2470.366,2021-8-06T03:33:02Z
2021-08-06T01:34:48Z,42.805,6.029,13.2986,4.59996,2470.366,2021-8-06T03:36:06Z
2021-08-06T01:37:51Z,42.805,6.029,13.2985,4.59996,2470.38,2021-8-06T03:39:09Z
2021-08-06T01:40:54Z,42.805,6.029,13.2986,4.59995,2470.39,2021-8-06T03:42:12Z
2021-08-06T01:43:57Z,42.805,6.029,13.2990,4.59996,2470.39,2021-8-06T03:45:15Z
2021-08-06T01:47:00Z,42.805,6.029,13.2987,4.60001,2470.366,2021-8-06T03:48:18Z
2021-08-06T01:50:03Z,42.805,6.029,13.2990,4.59997,2470.404,2021-8-06T03:51:21Z
2021-08-06T01:53:07Z,42.805,6.029,13.2988,4.60001,2470.38,2021-8-06T03:54:24Z
2021-08-06T01:56:10Z,42.805,6.029,13.2986,4.60002,2470.39,2021-8-06T03:57:27Z
2021-08-06T01:59:13Z,42.805,6.029,13.2983,4.59998,2470.38,2021-8-06T04:00:31Z
2021-08-06T02:02:16Z,42.805,6.029,13.2985,4.60004,2470.38,2021-8-06T04:03:34Z
2021-08-06T02:05:19Z,42.805,6.029,13.2987,4.59994,2470.366,2021-8-06T04:06:37Z
2021-08-06T02:08:22Z,42.805,6.029,13.2986,4.59997,2470.38,2021-8-06T04:09:40Z
2021-08-06T02:11:25Z,42.805,6.029,13.2987,4.59995,2470.366,2021-8-06T04:12:43Z
2021-08-06T02:14:28Z,42.805,6.029,13.2991,4.59996,2470.404,2021-8-06T04:15:46Z
2021-08-06T02:17:32Z,42.805,6.029,13.2989,4.59998,2470.366,2021-8-06T04:18:49Z
2021-08-06T02:20:35Z,42.805,6.029,13.2987,4.59997,2470.366,2021-8-06T04:21:52Z
2021-08-06T02:23:38Z,42.805,6.029,13.2986,4.60000,2470.366,2021-8-06T04:24:56Z
2021-08-06T02:26:41Z,42.805,6.029,13.2986,4.59997,2470.413,2021-8-06T04:27:59Z
2021-08-06T02:29:44Z,42.805,6.029,13.2990,4.59997,2470.357,2021-8-06T04:31:02Z
2021-08-06T02:32:47Z,42.805,6.029,13.2985,4.59997,2470.39,2021-8-06T04:34:05Z
2021-08-06T02:35:50Z,42.805,6.029,13.2982,4.59996,2470.413,2021-8-06T04:37:08Z
2021-08-06T02:38:53Z,42.805,6.029,13.2986,4.59996,2470.366,2021-8-06T04:40:11Z
2021-08-06T02:41:56Z,42.805,6.029,13.2983,4.59996,2470.366,2021-8-06T04:43:14Z
2021-08-06T02:45:00Z,42.805,6.029,13.2984,4.59996,2470.376,2021-8-06T04:46:17Z
2021-08-06T02:48:03Z,42.805,6.029,13.2986,4.59996,2470.38,2021-8-06T04:49:20Z
2021-08-06T02:51:06Z,42.805,6.029,13.2986,4.59999,2470.357,2021-8-06T04:52:24Z
2021-08-06T02:54:09Z,42.805,6.029,13.2990,4.60000,2470.39,2021-8-06T04:55:27Z
2021-08-06T02:57:12Z,42.805,6.029,13.2986,4.60001,2470.366,2021-8-06T04:58:30Z
2021-08-06T03:00:15Z,42.805,6.029,13.2986,4.59998,2470.39,2021-8-06T05:01:33Z
2021-08-06T03:03:18Z,42.805,6.029,13.2983,4.59999,2470.413,2021-8-06T05:04:36Z
2021-08-06T03:06:21Z,42.805,6.029,13.2988,4.59997,2470.427,2021-8-06T05:07:39Z
2021-08-06T03:09:25Z,42.805,6.029,13.2985,4.59998,2470.404,2021-8-06T05:10:42Z
2021-08-06T03:12:28Z,42.805,6.029,13.2988,4.59996,2470.404,2021-8-06T05:13:45Z
2021-08-06T03:15:31Z,42.805,6.029,13.2985,4.59996,2470.39,2021-8-06T05:16:49Z
2021-08-06T03:18:34Z,42.805,6.029,13.2988,4.59995,2470.413,2021-8-06T05:19:52Z
2021-08-06T03:21:37Z,42.805,6.029,13.2987,4.59997,2470.427,2021-8-06T05:22:55Z
2021-08-06T03:24:40Z,42.805,6.029,13.2988,4.59996,2470.39,2021-8-06T05:25:58Z
2021-08-06T03:27:43Z,42.805,6.029,13.2986,4.59996,2470.413,2021-8-06T05:29:01Z
2021-08-06T03:30:46Z,42.805,6.029,13.2982,4.59994,2470.427,2021-8-06T05:32:04Z
2021-08-06T03:33:49Z,42.805,6.029,13.2985,4.59996,2470.413,2021-8-06T05:35:07Z
2021-08-06T03:36:53Z,42.805,6.029,13.2985,4.59999,2470.413,2021-8-06T05:38:10Z
2021-08-06T03:39:56Z,42.805,6.029,13.2986,4.59996,2470.427,2021-8-06T05:41:13Z
2021-08-06T03:42:59Z,42.805,6.029,13.2982,4.59994,2470.46,2021-8-06T05:44:17Z
2021-08-06T03:46:02Z,42.805,6.029,13.2987,4.59996,2470.437,2021-8-06T05:47:20Z
2021-08-06T03:49:05Z,42.805,6.029,13.2986,4.59996,2470.404,2021-8-06T05:50:23Z
2021-08-06T03:52:08Z,42.805,6.029,13.2986,4.59996,2470.45,2021-8-06T05:53:26Z
2021-08-06T03:55:11Z,42.805,6.029,13.2985,4.59999,2470.427,2021-8-06T05:56:29Z
2021-08-06T03:58:14Z,42.805,6.029,13.2983,4.59998,2470.413,2021-8-06T05:59:32Z
2021-08-06T04:01:18Z,42.805,6.029,13.2983,4.59996,2470.45,2021-8-06T06:02:35Z
2021-08-06T04:04:21Z,42.805,6.029,13.2990,4.59996,2470.427,2021-8-06T06:05:38Z
2021-08-06T04:07:24Z,42.805,6.029,13.2986,4.59996,2470.427,2021-8-06T06:08:42Z
2021-08-06T04:10:27Z,42.805,6.029,13.2983,4.59996,2470.45,2021-8-06T06:11:45Z
2021-08-06T04:13:30Z,42.805,6.029,13.2989,4.59995,2470.413,2021-8-06T06:14:48Z
2021-08-06T04:16:33Z,42.805,6.029,13.2985,4.59994,2470.427,2021-8-06T06:17:51Z
2021-08-06T04:19:36Z,42.805,6.029,13.2986,4.59999,2470.45,2021-8-06T06:20:54Z
2021-08-06T04:22:39Z,42.805,6.029,13.2988,4.59996,2470.413,2021-8-06T06:23:57Z
2021-08-06T04:25:42Z,42.805,6.029,13.2983,4.59998,2470.437,2021-8-06T06:27:00Z
2021-08-06T04:28:46Z,42.805,6.029,13.2987,4.59996,2470.413,2021-8-06T06:30:03Z
2021-08-06T04:31:49Z,42.805,6.029,13.2986,4.59996,2470.45,2021-8-06T06:33:06Z
2021-08-06T04:34:52Z,42.805,6.029,13.2986,4.59996,2470.446,2021-8-06T06:36:10Z
2021-08-06T04:37:55Z,42.805,6.029,13.2986,4.59995,2470.474,2021-8-06T06:39:13Z
2021-08-06T04:40:58Z,42.805,6.029,13.2982,4.59999,2470.45,2021-8-06T06:42:16Z
2021-08-06T04:44:01Z,42.805,6.029,13.2982,4.59996,2470.413,2021-8-06T06:45:19Z
2021-08-06T04:47:04Z,42.805,6.029,13.2985,4.59995,2470.483,2021-8-06T06:48:22Z
2021-08-06T04:50:07Z,42.805,6.029,13.2983,4.59995,2470.437,2021-8-06T06:51:25Z
2021-08-06T04:53:11Z,42.805,6.029,13.2986,4.59996,2470.413,2021-8-06T06:54:28Z
2021-08-06T04:56:14Z,42.805,6.029,13.2985,4.59996,2470.474,2021-8-06T06:57:31Z
2021-08-06T04:59:17Z,42.805,6.029,13.2983,4.59996,2470.474,2021-8-06T07:00:35Z
2021-08-06T05:02:20Z,42.805,6.029,13.2982,4.59996,2470.46,2021-8-06T07:03:38Z
2021-08-06T05:05:23Z,42.805,6.029,13.2988,4.59995,2470.497,2021-8-06T07:06:41Z
2021-08-06T05:08:26Z,42.805,6.029,13.2989,4.59996,2470.413,2021-8-06T07:09:44Z
2021-08-06T05:11:29Z,42.805,6.029,13.2986,4.59996,2470.45,2021-8-06T07:12:47Z
2021-08-06T05:14:32Z,42.805,6.029,13.2983,4.59996,2470.437,2021-8-06T07:15:50Z
2021-08-06T05:17:35Z,42.805,6.029,13.2984,4.59996,2470.474,2021-8-06T07:18:53Z
2021-08-06T05:20:39Z,42.805,6.029,13.2986,4.59999,2470.46,2021-8-06T07:21:56Z
2021-08-06T05:23:42Z,42.805,6.029,13.2987,4.59999,2470.46,2021-8-06T07:24:59Z
2021-08-06T05:26:45Z,42.805,6.029,13.2987,4.59998,2470.483,2021-8-06T07:28:03Z
2021-08-06T05:29:48Z,42.805,6.029,13.2990,4.59997,2470.437,2021-8-06T07:31:06Z
2021-08-06T05:32:51Z,42.805,6.029,13.2985,4.59997,2470.46,2021-8-06T07:34:09Z
2021-08-06T05:35:54Z,42.805,6.029,13.2987,4.59996,2470.474,2021-8-06T07:37:12Z
2021-08-06T05:38:57Z,42.805,6.029,13.2982,4.59996,2470.46,2021-8-06T07:40:15Z
2021-08-06T05:42:00Z,42.805,6.029,13.2987,4.59996,2470.46,2021-8-06T07:43:18Z
2021-08-06T05:45:04Z,42.805,6.029,13.2986,4.59996,2470.413,2021-8-06T07:46:21Z
2021-08-06T05:48:07Z,42.805,6.029,13.2990,4.59996,2470.413,2021-8-06T07:49:24Z
2021-08-06T05:51:10Z,42.805,6.029,13.2986,4.59997,2470.45,2021-8-06T07:52:27Z
2021-08-06T05:54:13Z,42.805,6.029,13.2982,4.59997,2470.46,2021-8-06T07:55:31Z
2021-08-06T05:57:16Z,42.805,6.029,13.2989,4.59999,2470.46,2021-8-06T07:58:34Z
2021-08-06T06:00:19Z,42.805,6.029,13.2984,4.59999,2470.413,2021-8-06T08:01:37Z
2021-08-06T06:03:22Z,42.805,6.029,13.2988,4.59998,2470.437,2021-8-06T08:04:40Z
2021-08-06T06:06:25Z,42.805,6.029,13.2987,4.59996,2470.413,2021-8-06T08:07:43Z
2021-08-06T06:09:28Z,42.805,6.029,13.2988,4.59996,2470.46,2021-8-06T08:10:46Z
2021-08-06T06:12:32Z,42.805,6.029,13.2986,4.59997,2470.52,2021-8-06T08:13:49Z
2021-08-06T06:15:35Z,42.805,6.029,13.2989,4.59998,2470.437,2021-8-06T08:16:52Z
2021-08-06T06:18:38Z,42.805,6.029,13.2987,4.59996,2470.437,2021-8-06T08:19:56Z
2021-08-06T06:21:41Z,42.805,6.029,13.2985,4.59996,2470.427,2021-8-06T08:22:59Z
2021-08-06T06:24:44Z,42.805,6.029,13.2985,4.59997,2470.423,2021-8-06T08:26:02Z
2021-08-06T06:27:47Z,42.805,6.029,13.2990,4.59997,2470.427,2021-8-06T08:29:05Z
2021-08-06T06:30:50Z,42.805,6.029,13.2987,4.59998,2470.427,2021-8-06T08:32:08Z
2021-08-06T06:33:53Z,42.805,6.029,13.2986,4.59999,2470.437,2021-8-06T08:35:11Z
2021-08-06T06:36:57Z,42.805,6.029,13.2988,4.59999,2470.413,2021-8-06T08:38:14Z
2021-08-06T06:40:00Z,42.805,6.029,13.2989,4.59997,2470.45,2021-8-06T08:41:17Z
2021-08-06T06:43:03Z,42.805,6.029,13.2985,4.59999,2470.46,2021-8-06T08:44:20Z
2021-08-06T06:46:06Z,42.805,6.029,13.2988,4.59997,2470.413,2021-8-06T08:47:24Z
2021-08-06T06:49:09Z,42.805,6.029,13.2988,4.59998,2470.46,2021-8-06T08:50:27Z
2021-08-06T06:52:12Z,42.805,6.029,13.2986,4.59997,2470.45,2021-8-06T08:53:30Z
2021-08-06T06:55:15Z,42.805,6.029,13.2987,4.59998,2470.413,2021-8-06T08:56:33Z
2021-08-06T06:58:18Z,42.805,6.029,13.2990,4.59998,2470.413,2021-8-06T08:59:36Z
2021-08-06T07:01:21Z,42.805,6.029,13.2986,4.59999,2470.437,2021-8-06T09:02:39Z
2021-08-06T07:04:25Z,42.805,6.029,13.2990,4.59999,2470.437,2021-8-06T09:05:42Z
2021-08-06T07:07:28Z,42.805,6.029,13.2988,4.59999,2470.46,2021-8-06T09:08:45Z
2021-08-06T07:10:31Z,42.805,6.029,13.2990,4.59996,2470.427,2021-8-06T09:11:49Z
2021-08-06T07:13:34Z,42.805,6.029,13.2990,4.59998,2470.413,2021-8-06T09:14:52Z
2021-08-06T07:16:37Z,42.805,6.029,13.2992,4.59998,2470.413,2021-8-06T09:17:55Z
2021-08-06T07:19:40Z,42.805,6.029,13.2988,4.59999,2470.413,2021-8-06T09:20:58Z
2021-08-06T07:22:43Z,42.805,6.029,13.2986,4.59998,2470.413,2021-8-06T09:24:01Z
2021-08-06T07:25:46Z,42.805,6.029,13.2989,4.59999,2470.399,2021-8-06T09:27:04Z
2021-08-06T07:28:50Z,42.805,6.029,13.2988,4.59997,2470.413,2021-8-06T09:30:07Z
2021-08-06T07:31:53Z,42.805,6.029,13.2990,4.59997,2470.437,2021-8-06T09:33:10Z
2021-08-06T07:34:56Z,42.805,6.029,13.2988,4.59999,2470.413,2021-8-06T09:36:13Z
2021-08-06T07:37:59Z,42.805,6.029,13.2988,4.59998,2470.427,2021-8-06T09:39:17Z
2021-08-06T07:41:02Z,42.805,6.029,13.2990,4.60001,2470.404,2021-8-06T09:42:20Z
2021-08-06T07:44:05Z,42.805,6.029,13.2988,4.59998,2470.39,2021-8-06T09:45:23Z
2021-08-06T07:47:08Z,42.805,6.029,13.2990,4.59999,2470.404,2021-8-06T09:48:26Z
2021-08-06T07:50:11Z,42.805,6.029,13.2990,4.59997,2470.404,2021-8-06T09:51:29Z
2021-08-06T07:53:14Z,42.805,6.029,13.2996,4.59998,2470.413,2021-8-06T09:54:32Z
2021-08-06T07:56:18Z,42.805,6.029,13.2993,4.59997,2470.427,2021-8-06T09:57:35Z
2021-08-06T07:59:21Z,42.805,6.029,13.2991,4.59997,2470.413,2021-8-06T10:00:38Z
2021-08-06T08:02:24Z,42.805,6.029,13.2986,4.59997,2470.413,2021-8-06T10:03:42Z
2021-08-06T08:05:27Z,42.805,6.029,13.2991,4.60000,2470.39,2021-8-06T10:06:45Z
2021-08-06T08:08:30Z,42.805,6.029,13.2990,4.59999,2470.39,2021-8-06T10:09:48Z
2021-08-06T08:11:33Z,42.805,6.029,13.2987,4.59997,2470.404,2021-8-06T10:12:51Z
2021-08-06T08:14:36Z,42.805,6.029,13.2987,4.59998,2470.39,2021-8-06T10:15:54Z
2021-08-06T08:17:39Z,42.805,6.029,13.2993,4.59997,2470.366,2021-8-06T10:18:57Z
2021-08-06T08:20:43Z,42.805,6.029,13.2990,4.60001,2470.413,2021-8-06T10:22:00Z
2021-08-06T08:23:46Z,42.805,6.029,13.2988,4.60001,2470.38,2021-8-06T10:25:03Z
2021-08-06T08:26:49Z,42.805,6.029,13.2986,4.60003,2470.33,2021-8-06T10:28:07Z
2021-08-06T08:29:52Z,42.805,6.029,13.2990,4.59997,2470.404,2021-8-06T10:31:10Z
2021-08-06T08:32:55Z,42.805,6.029,13.2990,4.59998,2470.366,2021-8-06T10:34:13Z
2021-08-06T08:35:58Z,42.805,6.029,13.2990,4.59999,2470.353,2021-8-06T10:37:16Z
2021-08-06T08:39:01Z,42.805,6.029,13.2990,4.59998,2470.404,2021-8-06T10:40:19Z
2021-08-06T08:42:04Z,42.805,6.029,13.2985,4.59999,2470.366,2021-8-06T10:43:22Z
2021-08-06T08:45:08Z,42.805,6.029,13.2991,4.60001,2470.404,2021-8-06T10:46:25Z
2021-08-06T08:48:11Z,42.805,6.029,13.2989,4.59998,2470.39,2021-8-06T10:49:28Z
2021-08-06T08:51:14Z,42.805,6.029,13.2989,4.60003,2470.404,2021-8-06T10:52:31Z
2021-08-06T08:54:17Z,42.805,6.029,13.2991,4.59999,2470.39,2021-8-06T10:55:35Z
2021-08-06T08:57:20Z,42.805,6.029,13.2990,4.59996,2470.366,2021-8-06T10:58:38Z
2021-08-06T09:00:23Z,42.805,6.029,13.2990,4.59999,2470.38,2021-8-06T11:01:41Z
2021-08-06T09:03:26Z,42.805,6.029,13.2988,4.59999,2470.39,2021-8-06T11:04:44Z
2021-08-06T09:06:29Z,42.805,6.029,13.2989,4.59998,2470.366,2021-8-06T11:07:47Z
2021-08-06T09:09:33Z,42.805,6.029,13.2990,4.60000,2470.357,2021-8-06T11:10:50Z
2021-08-06T09:12:36Z,42.805,6.029,13.2990,4.59997,2470.39,2021-8-06T11:13:53Z
2021-08-06T09:15:39Z,42.805,6.029,13.2989,4.59998,2470.38,2021-8-06T11:16:56Z
2021-08-06T09:18:42Z,42.805,6.029,13.2986,4.59998,2470.38,2021-8-06T11:20:00Z
2021-08-06T09:21:45Z,42.805,6.029,13.2987,4.59998,2470.38,2021-8-06T11:23:03Z
2021-08-06T09:24:48Z,42.805,6.029,13.2990,4.59998,2470.39,2021-8-06T11:26:06Z
2021-08-06T09:27:51Z,42.805,6.029,13.2985,4.59998,2470.38,2021-8-06T11:29:09Z
2021-08-06T09:30:54Z,42.805,6.029,13.2986,4.59999,2470.366,2021-8-06T11:32:12Z
2021-08-06T09:33:57Z,42.805,6.029,13.2990,4.60001,2470.366,2021-8-06T11:35:15Z
2021-08-06T09:37:01Z,42.805,6.029,13.2988,4.59996,2470.343,2021-8-06T11:38:18Z
2021-08-06T09:40:04Z,42.805,6.029,13.2990,4.59996,2470.366,2021-8-06T11:41:21Z
2021-08-06T09:43:07Z,42.805,6.029,13.2996,4.59997,2470.39,2021-8-06T11:44:25Z
2021-08-06T09:46:10Z,42.805,6.029,13.2986,4.59999,2470.343,2021-8-06T11:47:28Z
2021-08-06T09:49:13Z,42.805,6.029,13.2987,4.59998,2470.343,2021-8-06T11:50:31Z
2021-08-06T09:52:16Z,42.805,6.029,13.2990,4.60001,2470.366,2021-8-06T11:53:34Z
2021-08-06T09:55:19Z,42.805,6.029,13.2988,4.59996,2470.343,2021-8-06T11:56:37Z
2021-08-06T09:58:22Z,42.805,6.029,13.2986,4.60001,2470.343,2021-8-06T11:59:40Z
2021-08-06T10:01:26Z,42.805,6.029,13.2990,4.59999,2470.343,2021-8-06T12:02:43Z
2021-08-06T10:04:29Z,42.805,6.029,13.2988,4.60000,2470.366,2021-8-06T12:05:46Z
2021-08-06T10:07:32Z,42.805,6.029,13.2986,4.60002,2470.366,2021-8-06T12:08:50Z
2021-08-06T10:10:35Z,42.805,6.029,13.2989,4.59998,2470.343,2021-8-06T12:11:53Z
2021-08-06T10:13:38Z,42.805,6.029,13.2991,4.59998,2470.343,2021-8-06T12:14:56Z
2021-08-06T10:16:41Z,42.805,6.029,13.2987,4.59999,2470.343,2021-8-06T12:17:59Z
2021-08-06T10:19:44Z,42.805,6.029,13.2990,4.59999,2470.32,2021-8-06T12:21:02Z
2021-08-06T10:22:47Z,42.805,6.029,13.2995,4.59997,2470.366,2021-8-06T12:24:05Z
2021-08-06T10:25:51Z,42.805,6.029,13.2990,4.59999,2470.343,2021-8-06T12:27:08Z
2021-08-06T10:28:54Z,42.805,6.029,13.2990,4.60001,2470.343,2021-8-06T12:30:11Z
2021-08-06T10:31:57Z,42.805,6.029,13.2989,4.60004,2470.334,2021-8-06T12:33:15Z
2021-08-06T10:35:00Z,42.805,6.029,13.2991,4.59998,2470.32,2021-8-06T12:36:18Z
2021-08-06T10:38:03Z,42.805,6.029,13.2991,4.59997,2470.334,2021-8-06T12:39:21Z
2021-08-06T10:41:06Z,42.805,6.029,13.2990,4.59998,2470.343,2021-8-06T12:42:24Z
2021-08-06T10:44:09Z,42.805,6.029,13.2987,4.60000,2470.32,2021-8-06T12:45:27Z
2021-08-06T10:47:12Z,42.805,6.029,13.2990,4.59996,2470.357,2021-8-06T12:48:30Z
2021-08-06T10:50:16Z,42.805,6.029,13.2991,4.59996,2470.334,2021-8-06T12:51:33Z
2021-08-06T10:53:19Z,42.805,6.029,13.2988,4.59997,2470.343,2021-8-06T12:54:36Z
2021-08-06T10:56:22Z,42.805,6.029,13.2986,4.59997,2470.32,2021-8-06T12:57:40Z
2021-08-06T10:59:25Z,42.805,6.029,13.2986,4.60001,2470.357,2021-8-06T13:00:43Z
2021-08-06T11:02:28Z,42.805,6.029,13.2990,4.59996,2470.32,2021-8-06T13:03:46Z
2021-08-06T11:05:31Z,42.805,6.029,13.2989,4.59997,2470.31,2021-8-06T13:06:49Z
2021-08-06T11:08:34Z,42.805,6.029,13.2991,4.60005,2470.32,2021-8-06T13:09:52Z
2021-08-06T11:11:37Z,42.805,6.029,13.2989,4.60000,2470.334,2021-8-06T13:12:55Z
2021-08-06T11:14:41Z,42.805,6.029,13.2993,4.59996,2470.334,2021-8-06T13:15:58Z
2021-08-06T11:17:44Z,42.805,6.029,13.2991,4.59998,2470.357,2021-8-06T13:19:01Z
2021-08-06T11:20:47Z,42.805,6.029,13.2986,4.60003,2470.297,2021-8-06T13:22:05Z
2021-08-06T11:23:50Z,42.805,6.029,13.2991,4.60002,2470.32,2021-8-06T13:25:08Z
2021-08-06T11:26:53Z,42.805,6.029,13.2990,4.59998,2470.357,2021-8-06T13:28:11Z
2021-08-06T11:29:56Z,42.805,6.029,13.2991,4.59998,2470.32,2021-8-06T13:31:14Z
2021-08-06T11:32:59Z,42.805,6.029,13.2990,4.59998,2470.357,2021-8-06T13:34:17Z
2021-08-06T11:36:02Z,42.805,6.029,13.2990,4.60000,2470.31,2021-8-06T13:37:20Z
2021-08-06T11:39:05Z,42.805,6.029,13.2989,4.59999,2470.297,2021-8-06T13:40:23Z
2021-08-06T11:42:09Z,42.805,6.029,13.2991,4.59999,2470.32,2021-8-06T13:43:26Z
2021-08-06T11:45:12Z,42.805,6.029,13.2990,4.59997,2470.334,2021-8-06T13:46:30Z
2021-08-06T11:48:15Z,42.805,6.029,13.2991,4.59999,2470.273,2021-8-06T13:49:33Z
2021-08-06T11:51:18Z,42.805,6.029,13.2993,4.59999,2470.32,2021-8-06T13:52:36Z
2021-08-06T11:54:21Z,42.805,6.029,13.2990,4.59996,2470.31,2021-8-06T13:55:39Z
2021-08-06T11:57:24Z,42.805,6.029,13.2989,4.59996,2470.32,2021-8-06T13:58:42Z
2021-08-06T12:00:27Z,42.805,6.029,13.2993,4.59998,2470.31,2021-8-06T14:01:45Z
2021-08-06T12:03:30Z,42.805,6.029,13.2991,4.59996,2470.32,2021-8-06T14:04:48Z
2021-08-06T12:06:34Z,42.805,6.029,13.2989,4.60004,2470.297,2021-8-06T14:07:51Z
2021-08-06T12:09:37Z,42.805,6.029,13.2986,4.59997,2470.32,2021-8-06T14:10:54Z
2021-08-06T12:12:40Z,42.805,6.029,13.2986,4.59999,2470.31,2021-8-06T14:13:58Z
2021-08-06T12:15:43Z,42.805,6.029,13.2989,4.59996,2470.334,2021-8-06T14:17:01Z
2021-08-06T12:18:46Z,42.805,6.029,13.2990,4.60000,2470.297,2021-8-06T14:20:04Z
2021-08-06T12:21:49Z,42.805,6.029,13.2988,4.60000,2470.273,2021-8-06T14:23:07Z
2021-08-06T12:24:52Z,42.805,6.029,13.2989,4.59999,2470.334,2021-8-06T14:26:10Z
2021-08-06T12:27:55Z,42.805,6.029,13.2990,4.60000,2470.297,2021-8-06T14:29:13Z
2021-08-06T12:30:59Z,42.805,6.029,13.2989,4.59999,2470.297,2021-8-06T14:32:16Z
2021-08-06T12:34:02Z,42.805,6.029,13.2985,4.59997,2470.297,2021-8-06T14:35:19Z
2021-08-06T12:37:05Z,42.805,6.029,13.2987,4.59997,2470.32,2021-8-06T14:38:23Z
2021-08-06T12:40:08Z,42.805,6.029,13.2990,4.59998,2470.31,2021-8-06T14:41:26Z
2021-08-06T12:43:11Z,42.805,6.029,13.2988,4.60003,2470.31,2021-8-06T14:44:29Z
2021-08-06T12:46:14Z,42.805,6.029,13.2990,4.59998,2470.31,2021-8-06T14:47:32Z
2021-08-06T12:49:17Z,42.805,6.029,13.2989,4.60000,2470.31,2021-8-06T14:50:35Z
2021-08-06T12:52:20Z,42.805,6.029,13.2988,4.59999,2470.297,2021-8-06T14:53:38Z
2021-08-06T12:55:24Z,42.805,6.029,13.2987,4.59998,2470.297,2021-8-06T14:56:41Z
2021-08-06T12:58:27Z,42.805,6.029,13.2990,4.59997,2470.343,2021-8-06T14:59:44Z
2021-08-06T13:01:30Z,42.805,6.029,13.2987,4.59999,2470.297,2021-8-06T15:02:48Z
2021-08-06T13:04:33Z,42.805,6.029,13.2989,4.59998,2470.334,2021-8-06T15:05:51Z
2021-08-06T13:07:36Z,42.805,6.029,13.2986,4.59997,2470.297,2021-8-06T15:08:54Z
2021-08-06T13:10:39Z,42.805,6.029,13.2989,4.59997,2470.31,2021-8-06T15:11:57Z
2021-08-06T13:13:42Z,42.805,6.029,13.2985,4.59997,2470.297,2021-8-06T15:15:00Z
2021-08-06T13:16:45Z,42.805,6.029,13.2986,4.59997,2470.297,2021-8-06T15:18:03Z
2021-08-06T13:19:49Z,42.805,6.029,13.2986,4.59999,2470.334,2021-8-06T15:21:06Z
2021-08-06T13:22:52Z,42.805,6.029,13.2991,4.59997,2470.32,2021-8-06T15:24:09Z
2021-08-06T13:25:55Z,42.805,6.029,13.2990,4.59999,2470.297,2021-8-06T15:27:13Z
2021-08-06T13:28:58Z,42.805,6.029,13.2986,4.59999,2470.334,2021-8-06T15:30:16Z
2021-08-06T13:32:01Z,42.805,6.029,13.2990,4.59998,2470.32,2021-8-06T15:33:19Z
2021-08-06T13:35:04Z,42.805,6.029,13.2989,4.59998,2470.31,2021-8-06T15:36:22Z
2021-08-06T13:38:07Z,42.805,6.029,13.2986,4.59999,2470.32,2021-8-06T15:39:25Z
2021-08-06T13:41:10Z,42.805,6.029,13.2984,4.59998,2470.31,2021-8-06T15:42:28Z
2021-08-06T13:44:14Z,42.805,6.029,13.2989,4.60001,2470.343,2021-8-06T15:45:31Z
2021-08-06T13:47:17Z,42.805,6.029,13.2987,4.60004,2470.297,2021-8-06T15:48:34Z
2021-08-06T13:50:20Z,42.805,6.029,13.2988,4.59999,2470.357,2021-8-06T15:51:38Z
2021-08-06T13:53:23Z,42.805,6.029,13.2987,4.60000,2470.357,2021-8-06T15:54:41Z
2021-08-06T13:56:26Z,42.805,6.029,13.2990,4.59999,2470.343,2021-8-06T15:57:44Z
2021-08-06T13:59:29Z,42.805,6.029,13.2987,4.59999,2470.334,2021-8-06T16:00:47Z
2021-08-06T14:02:32Z,42.805,6.029,13.2987,4.59998,2470.343,2021-8-06T16:03:50Z
2021-08-06T14:05:35Z,42.805,6.029,13.2990,4.59999,2470.357,2021-8-06T16:06:53Z
2021-08-06T14:08:39Z,42.805,6.029,13.2987,4.59996,2470.343,2021-8-06T16:09:56Z
2021-08-06T14:11:42Z,42.805,6.029,13.2988,4.59998,2470.343,2021-8-06T16:12:59Z
2021-08-06T14:14:45Z,42.805,6.029,13.2989,4.59998,2470.343,2021-8-06T16:16:03Z
2021-08-06T14:17:49Z,42.805,6.029,13.2986,4.59999,2470.366,2021-8-06T16:19:06Z
2021-08-06T14:20:52Z,42.805,6.029,13.2990,4.59998,2470.357,2021-8-06T16:22:10Z
2021-08-06T14:23:55Z,42.805,6.029,13.2988,4.59999,2470.343,2021-8-06T16:25:13Z
2021-08-06T14:26:58Z,42.805,6.029,13.2986,4.59999,2470.343,2021-8-06T16:28:16Z
2021-08-06T14:30:01Z,42.805,6.029,13.2986,4.60000,2470.39,2021-8-06T16:31:19Z
2021-08-06T14:33:04Z,42.805,6.029,13.2990,4.59999,2470.38,2021-8-06T16:34:22Z
2021-08-06T14:36:07Z,42.805,6.029,13.2990,4.59998,2470.38,2021-8-06T16:37:25Z
2021-08-06T14:39:10Z,42.805,6.029,13.2991,4.59999,2470.404,2021-8-06T16:40:28Z
2021-08-06T14:42:14Z,42.805,6.029,13.2990,4.60000,2470.39,2021-8-06T16:43:31Z
2021-08-06T14:45:17Z,42.805,6.029,13.2984,4.59998,2470.343,2021-8-06T16:46:35Z
2021-08-06T14:48:20Z,42.805,6.029,13.2990,4.59999,2470.39,2021-8-06T16:49:38Z
2021-08-06T14:51:23Z,42.805,6.029,13.2986,4.59999,2470.38,2021-8-06T16:52:41Z
2021-08-06T14:54:26Z,42.805,6.029,13.2984,4.59997,2470.38,2021-8-06T16:55:44Z
2021-08-06T14:57:29Z,42.805,6.029,13.2986,4.59999,2470.38,2021-8-06T16:58:47Z
2021-08-06T15:00:32Z,42.805,6.029,13.2991,4.59999,2470.39,2021-8-06T17:01:50Z
2021-08-06T15:03:35Z,42.805,6.029,13.2988,4.59999,2470.404,2021-8-06T17:04:53Z
2021-08-06T15:06:39Z,42.805,6.029,13.2991,4.59999,2470.404,2021-8-06T17:07:56Z
2021-08-06T15:09:42Z,42.805,6.029,13.2986,4.59998,2470.413,2021-8-06T17:11:00Z
2021-08-06T15:12:45Z,42.805,6.029,13.2990,4.59999,2470.413,2021-8-06T17:14:03Z